This is the latest recevied weather packets stored in our database for station/object 9W2SSS-1. If no packets are shown the sender has not sent any weather packets the latest 10 day(s).
| Time | Temp. | Humidity | Pressure | Rain* | Wind** | Luminosity | Snow |
|---|---|---|---|---|---|---|---|
| 1777905804 | 30° C | 69% | 1009.5 hPa | - | - | - | - |
| 1777904604 | 30° C | 70% | 1009.4 hPa | - | - | - | - |
| 1777903404 | 30° C | 70% | 1009.4 hPa | - | - | - | - |
| 1777902204 | 30° C | 69% | 1008.9 hPa | - | - | - | - |
| 1777901004 | 30° C | 68% | 1008.7 hPa | - | - | - | - |
| 1777898604 | 30° C | 68% | 1008.4 hPa | - | - | - | - |
| 1777897404 | 30.56° C | 66% | 1008.1 hPa | - | - | - | - |
| 1777896203 | 30.56° C | 64% | 1008 hPa | - | - | - | - |
| 1777893803 | 31.11° C | 62% | 1007.6 hPa | - | - | - | - |
| 1777892603 | 31.11° C | 60% | 1007.6 hPa | - | - | - | - |
| 1777886605 | 31.67° C | 59% | 1006.6 hPa | - | - | - | - |
| 1777885405 | 32.22° C | 59% | 1006.6 hPa | - | - | - | - |
| 1777883005 | 32.78° C | 58% | 1006.9 hPa | - | - | - | - |
| 1777881805 | 32.78° C | 58% | 1007.1 hPa | - | - | - | - |
| 1777880605 | 32.78° C | 57% | 1007.4 hPa | - | - | - | - |
| 1777879405 | 32.78° C | 55% | 1007.6 hPa | - | - | - | - |
| 1777878205 | 32.78° C | 55% | 1008.1 hPa | - | - | - | - |
| 1777877004 | 33.33° C | 54% | 1008.4 hPa | - | - | - | - |
| 1777875804 | 33.33° C | 57% | 1008.6 hPa | - | - | - | - |
| 1777874604 | 33.33° C | 59% | 1008.8 hPa | - | - | - | - |
| 1777873404 | 33.33° C | 59% | 1009.1 hPa | - | - | - | - |
| 1777872204 | 32.78° C | 60% | 1009.5 hPa | - | - | - | - |
| 1777871004 | 32.78° C | 58% | 1009.8 hPa | - | - | - | - |
| 1777869804 | 33.89° C | 55% | 1009.8 hPa | - | - | - | - |
| 1777868604 | 33.89° C | 53% | 1010.1 hPa | - | - | - | - |
* Rain since midnight (hover to see other rain measurements)
** Current wind speed in m/s (hover to see current wind gust speed)